This demonstration page uses our WeatherBlox Daily Observations layout. Learn more.

Left ArrowRight Arrow

Hourly Observations for January 7, 2022

Temp ( °F °C ) Dew Point ( °F °C ) Humidity (%) Winds ( mph kmh ) Pressure ( in mb ) Visibility ( mi km ) Precip ( " mm )
12:54 am 00:54 Cloudy 7 -13.9 -6 -21.1 55 55 E 3 6 30.36 1028 10 16 0.00 0.00
1:54 am 01:54 Cloudy 8 -13.3 -6 -21.1 52 52 S 7 11 30.34 1028 10 16 0.00 0.00
2:54 am 02:54 Cloudy 9 -12.8 -4 -20 55 55 SSE 7 11 30.35 1028 10 16 0.00 0.00
3:54 am 03:54 Cloudy 10 -12.2 -4 -20 53 53 SSE 6 9 30.32 1027 10 16 0.00 0.00
4:54 am 04:54 Cloudy 10 -12.2 -3 -19.4 55 55 SSE 8 13 30.30 1026 10 16 0.00 0.00
5:54 am 05:54 Cloudy 10 -12.2 -3 -19.4 55 55 SSE 12 19 30.29 1026 10 16 0.00 0.00
6:54 am 06:54 Clear 9 -12.8 -2 -18.9 61 61 SSE 9 15 30.29 1026 10 16 0.00 0.00
7:54 am 07:54 Sunny 9 -12.8 -2 -18.9 61 61 SSE 12 19 30.27 1025 10 16 0.00 0.00
8:54 am 08:54 Sunny 10 -12.2 -1 -18.3 61 61 S 13 20 30.29 1026 10 16 0.00 0.00
9:54 am 09:54 Sunny 13 -10.6 1 -17.2 59 59 S 17 28 30.27 1025 10 16 0.00 0.00
10:54 am 10:54 Sunny 17 -8.3 0 -17.8 47 47 S 20 31 30.24 1024 10 16 0.00 0.00
11:54 am 11:54 Sunny 19 -7.2 1 -17.2 45 45 SSW 15 24 30.21 1023 10 16 0.00 0.00
12:54 pm 12:54 Sunny 21 -6.1 2 -16.7 43 43 SSE 20 31 30.14 1021 10 16 0.00 0.00
1:54 pm 13:54 Sunny 22 -5.6 3 -16.1 44 44 S 16 26 30.10 1019 10 16 0.00 0.00
2:54 pm 14:54 Sunny 23 -5 3 -16.1 42 42 S 18 30 30.06 1018 10 16 0.00 0.00
3:54 pm 15:54 Sunny 23 -5 4 -15.6 44 44 S 21 33 30.04 1017 10 16 0.00 0.00
4:54 pm 16:54 Sunny 22 -5.6 5 -15 48 48 S 17 28 30.04 1017 10 16 0.00 0.00
5:54 pm 17:54 Clear 21 -6.1 6 -14.4 52 52 S 17 28 30.01 1016 10 16 0.00 0.00
6:54 pm 18:54 Clear 21 -6.1 6 -14.4 52 52 S 20 31 30.00 1016 10 16 0.00 0.00
7:54 pm 19:54 Clear 20 -6.7 7 -13.9 57 57 S 15 24 30.01 1016 10 16 0.00 0.00
8:54 pm 20:54 Clear 19 -7.2 8 -13.3 62 62 S 16 26 30.00 1016 10 16 0.00 0.00
9:54 pm 21:54 Clear 19 -7.2 8 -13.3 62 62 S 15 24 30.00 1016 10 16 0.00 0.00
10:54 pm 22:54 Clear 18 -7.8 9 -12.8 68 68 S 13 20 29.98 1015 10 16 0.00 0.00
11:54 pm 23:54 Clear 18 -7.8 10 -12.2 71 71 S 14 22 29.94 1014 10 16 0.00 0.00

Powered by AerisWeather